Temperature
9 10 10 10 10 10 11 11 11 11 12 13 12 12 13 12 12 12 12 13 14 15 15 15 15 15 15 15 15 15 15 16 16 16 16 16 16 15 15 16 16 16 16
5 6 7 8 9 9 10 10 10 10 11 12 12 12 12 12 12 12 12 12 13 14 15 15 15 15 15 15 15 15 15 15 16 16 16 16 15 15 15 15 16 16 16
2 3 4 5 6 7 9 9 9 9 10 11 11 12 12 12 12 12 12 12 12 13 14 14 15 15 15 15 15 15 15 15 16 15 15 15 15 15 15 15 16 16 16
1 3 3 3 3 5 5 6 7 7 8 9 10 11 11 11 11 11 12 12 12 12 12 13 14 14 15 15 15 15 15 15 15 15 15 15 15 15 15 15 15 16 16
-0 0 1 1 2 2 3 3 4 5 6 8 9 10 10 10 11 11 11 11 12 12 12 12 13 14 14 14 14 15 15 15 15 15 15 15 15 14 15 15 15 15 16
-3 -2 -2 -1 -0 0 1 2 3 3 5 6 8 9 10 10 10 11 11 11 11 12 12 12 12 13 13 14 14 15 15 15 15 15 15 15 15 14 14 15 15 15 15
-4 -4 -3 -3 -2 -2 -1 -1 0 1 3 4 5 7 9 10 10 10 11 11 11 11 12 12 12 12 12 13 14 14 14 14 15 15 15 14 14 15 14 14 14 15 15
-5 -5 -5 -4 -4 -4 -3 -2 -2 -1 0 2 3 5 8 11 11 11 11 11 11 11 11 12 12 12 12 12 13 14 14 14 14 14 14 14 14 14 14 14 14 14 15
-6 -6 -5 -5 -5 -5 -5 -4 -4 -3 -2 -1 1 3 6 10 11 12 11 11 11 11 11 11 11 12 12 12 12 13 14 14 14 14 14 14 14 14 14 14 14 14 14
-6 -6 -6 -6 -6 -6 -5 -5 -4 -4 -3 -2 -1 1 3 5 6 9 11 10 10 11 11 11 11 11 12 12 12 12 13 13 14 14 14 15 14 14 14 14 14 14 14
-7 -6 -6 -6 -6 -6 -5 -5 -5 -4 -4 -3 -2 -1 1 3 5 6 8 10 10 10 10 11 11 11 13 12 12 12 13 13 13 14 14 14 14 14 14 14 14 14 13
-8 -7 -7 -7 -7 -6 -6 -6 -5 -5 -5 -4 -3 -2 -1 1 3 5 6 8 10 10 10 10 10 10 12 12 12 12 13 13 13 13 14 14 14 14 14 14 13 13 13
-9 -8 -8 -8 -7 -7 -6 -6 -6 -6 -5 -5 -4 -3 -2 -0 1 3 5 6 7 9 10 9 10 10 11 11 11 12 13 13 13 13 13 13 13 14 14 13 13 13 13
-10 -9 -9 -9 -8 -7 -7 -6 -6 -6 -6 -5 -4 -3 -3 -2 0 2 3 5 6 7 8 9 9 10 10 11 11 12 12 12 13 13 13 13 13 13 13 13 13 12 12
-10 -10 -9 -9 -9 -8 -7 -7 -6 -6 -5 -5 -4 -3 -3 -2 -1 1 2 4 5 6 7 8 9 9 10 10 11 11 11 12 12 12 12 12 12 12 12 12 12 12 11
-11 -11 -10 -10 -9 -8 -8 -7 -7 -6 -6 -5 -4 -3 -2 -1 0 1 2 3 4 4 6 7 8 9 9 10 10 10 10 11 11 11 12 12 12 12 11 12 12 11 10
-12 -11 -11 -11 -10 -9 -8 -8 -7 -7 -6 -6 -5 -4 -2 -1 0 1 2 3 3 4 5 6 7 7 8 9 9 9 9 9 10 10 11 11 11 11 11 10 10 10 10
-12 -12 -12 -11 -11 -10 -8 -8 -7 -7 -6 -6 -6 -4 -2 -1 -0 0 1 2 3 3 4 5 6 6 7 8 8 9 8 8 9 9 9 9 9 9 9 9 9 9 9
-13 -12 -12 -12 -11 -10 -8 -8 -7 -7 -6 -6 -6 -5 -4 -2 -1 -1 0 1 2 3 3 4 5 5 7 7 7 7 7 7 8 8 8 8 8 8 8 8 8 8 7
-13 -13 -12 -12 -11 -10 -9 -8 -7 -7 -7 -6 -6 -5 -4 -4 -2 -2 -1 0 1 2 3 4 4 4 6 7 6 6 6 6 6 6 6 7 7 7 7 8 7 7 7
-14 -13 -13 -12 -11 -10 -9 -9 -8 -8 -7 -7 -7 -6 -5 -5 -4 -2 -1 -0 0 1 2 3 4 4 5 6 5 5 6 5 5 5 6 6 6 6 6 6 6 6 6
-14 -13 -13 -13 -12 -11 -10 -9 -9 -9 -8 -8 -7 -7 -6 -5 -4 -3 -3 -2 -0 0 1 1 3 4 4 5 5 5 5 6 5 4 5 4 5 5 5 6 6 6 6
-14 -14 -14 -13 -13 -12 -11 -10 -9 -9 -8 -8 -8 -8 -8 -7 -5 -4 -4 -3 -2 -1 -0 0 1 1 2 4 4 5 5 6 5 4 5 4 4 3 4 4 5 5 5
-15 -15 -14 -14 -13 -12 -11 -10 -9 -9 -9 -9 -8 -9 -8 -8 -7 -6 -5 -4 -4 -4 -3 -2 -1 -1 -0 1 3 3 4 5 4 4 4 3 3 3 3 4 3 3 4
-15 -15 -14 -14 -13 -12 -11 -10 -9 -9 -10 -10 -9 -9 -9 -9 -8 -7 -7 -6 -6 -6 -5 -4 -3 -1 0 1 1 2 3 3 3 3 3 3 2 2 2 2 2 2 3
-15 -14 -14 -13 -13 -13 -12 -11 -10 -10 -10 -10 -10 -10 -10 -10 -9 -9 -8 -8 -7 -7 -6 -5 -5 -3 -2 -1 -0 0 1 2 3 2 2 2 2 2 1 1 2 2 2
Wind_Speed
17 19 18 18 17 17 16 14 13 11 11 11 12 13 13 13 13 11 10 12 14 15 14 15 17 17 17 19 22 21 20 18 17 16 15 14 12 11 11 11 11 11 11
20 18 17 16 16 17 18 17 15 14 12 11 12 13 13 14 14 13 11 11 15 16 16 16 18 19 19 19 21 23 22 20 19 18 17 16 15 14 13 13 12 12 11
22 21 17 15 16 18 18 17 17 14 13 13 13 13 13 14 14 14 13 11 12 15 16 17 18 19 20 21 21 23 24 22 21 19 18 18 17 17 16 15 14 14 14
24 22 17 15 18 18 15 12 13 13 13 13 13 12 11 12 15 14 14 13 13 13 15 17 19 20 21 22 23 23 24 25 23 22 21 19 19 19 18 17 16 15 15
24 22 18 18 20 16 12 12 12 13 13 14 14 14 13 12 14 14 15 15 15 14 13 15 18 19 21 22 23 23 22 23 22 23 23 22 21 20 19 18 17 17 16
23 22 18 19 19 14 13 13 15 14 13 14 14 15 15 15 14 14 15 15 15 15 16 16 15 16 19 21 22 22 21 21 23 25 26 26 24 22 20 19 18 18 17
23 21 18 18 17 15 16 16 14 15 13 12 11 13 17 17 17 15 14 14 15 15 15 15 15 14 14 19 19 21 22 21 23 25 26 27 27 26 23 21 20 19 17
23 20 18 14 16 16 17 16 16 13 13 12 9 9 10 14 16 15 15 15 15 14 14 13 14 15 14 13 16 19 22 21 21 22 24 27 28 26 25 24 21 20 19
22 20 19 16 15 13 13 14 14 15 14 14 13 8 7 9 9 11 12 13 14 13 13 13 14 15 16 14 13 15 19 21 21 21 22 25 28 28 26 25 23 22 20
22 21 19 17 14 12 14 13 14 12 13 13 14 13 12 8 7 8 9 9 10 11 13 12 13 12 14 14 14 13 16 20 21 21 21 23 26 29 29 28 26 24 22
22 22 22 19 16 13 14 15 15 14 11 12 13 15 16 12 12 9 11 11 9 8 10 11 11 8 10 13 12 13 13 17 21 22 23 23 26 31 33 31 29 26 24
18 21 23 22 19 15 15 15 16 16 13 14 13 14 16 13 9 9 10 14 15 12 10 8 9 9 8 9 10 11 13 15 19 21 22 23 24 29 32 31 30 27 25
17 19 22 20 19 19 18 15 16 15 16 15 15 13 14 16 13 12 13 12 13 14 13 10 10 9 8 8 10 12 13 15 18 20 20 22 23 26 30 31 29 28 28
17 21 22 22 23 23 19 16 16 16 15 15 16 15 14 16 15 13 12 11 11 12 13 12 9 8 7 8 11 13 13 16 18 19 21 23 23 24 24 25 24 25 27
20 23 23 21 22 22 20 18 16 17 16 16 15 16 15 15 15 12 12 10 9 9 12 13 10 8 6 6 9 12 13 13 16 17 20 23 23 23 25 25 24 23 28
23 23 21 21 20 19 19 19 17 16 16 16 14 15 17 16 13 9 11 12 12 13 9 7 7 6 7 5 6 10 10 12 13 15 17 22 28 32 32 30 31 29 27
22 21 22 22 22 21 20 19 20 17 17 16 15 16 18 16 9 6 8 11 12 12 11 8 6 7 7 7 5 4 8 8 11 16 17 20 27 31 31 30 29 30 30
22 22 22 22 22 22 21 21 21 18 16 17 16 15 15 11 11 7 6 10 12 12 11 10 7 8 8 8 10 10 6 8 9 16 20 19 21 25 29 29 28 28 28
21 22 20 21 22 21 21 22 19 16 14 15 15 14 13 15 13 10 6 8 9 8 10 9 8 9 7 7 9 10 7 8 11 15 18 18 21 21 23 26 26 25 24
20 21 20 20 21 20 20 21 14 12 13 14 15 15 14 15 15 12 7 9 11 9 7 7 9 12 10 7 10 11 9 7 10 12 13 15 16 19 20 21 21 23 22
20 20 20 20 21 19 19 23 11 10 12 13 14 14 14 17 21 15 4 6 8 7 2 5 8 10 11 11 11 10 11 10 6 6 10 10 11 12 14 17 18 20 22
20 19 19 20 20 17 27 32 17 10 11 11 12 13 14 16 19 24 26 22 15 4 1 4 3 5 6 7 8 11 14 11 5 3 8 7 8 10 9 12 16 19 20
19 19 19 19 19 21 30 31 19 12 11 12 12 12 12 14 16 14 20 25 26 28 20 8 9 7 4 5 1 9 10 13 9 2 6 6 7 7 5 10 19 20 20
17 17 18 19 19 21 30 29 18 9 11 13 13 14 15 15 17 16 15 17 18 19 21 15 17 14 11 9 7 4 7 10 10 7 5 4 4 6 9 13 19 22 22
16 16 17 18 18 20 29 28 12 11 12 14 15 16 18 18 24 24 18 17 18 17 20 26 28 28 30 28 17 5 5 9 5 4 6 4 5 5 7 9 14 21 23
15 16 16 16 16 17 25 26 21 13 12 12 12 16 22 23 26 26 19 17 16 15 15 17 20 23 22 22 26 17 9 6 6 4 4 2 4 4 4 5 8 12 16
Wind_Direction
342 339 336 335 333 333 330 321 308 295 278 261 255 257 255 254 250 241 237 210 230 236 236 240 244 245 240 233 227 225 218 212 210 205 199 194 192 190 186 181 177 175 178
339 336 332 331 331 331 326 317 308 299 287 276 267 259 257 254 254 249 241 225 221 236 237 237 238 240 238 235 230 222 217 211 211 208 202 197 192 189 186 181 178 177 179
341 337 330 329 330 328 320 315 309 299 286 275 266 263 262 258 252 248 242 239 229 227 234 236 234 236 237 234 232 227 219 212 207 208 206 198 193 190 190 187 184 182 181
343 336 332 331 330 325 320 315 309 304 293 282 271 265 263 262 259 254 248 242 239 236 228 227 231 232 235 236 233 230 222 214 206 206 207 202 194 193 193 193 191 190 189
341 338 333 331 331 327 324 320 312 305 296 287 278 269 263 261 259 255 250 243 238 235 236 225 219 229 231 234 238 235 228 215 208 209 208 204 198 196 196 197 196 195 195
339 337 333 332 332 330 327 324 315 304 296 290 284 277 265 258 257 254 253 248 240 233 233 238 231 230 226 229 234 234 227 212 207 213 212 209 200 196 199 198 197 197 197
337 336 335 333 333 329 325 321 318 309 300 294 292 278 264 255 250 250 249 247 242 235 234 235 237 240 228 219 226 227 221 215 210 211 212 211 204 194 195 197 195 195 195
334 336 333 331 332 328 323 322 323 317 306 302 306 301 271 260 245 243 245 241 238 235 232 231 232 235 238 228 219 217 215 215 211 210 211 211 207 196 192 195 194 193 194
327 329 329 327 327 319 313 317 316 313 313 305 290 285 278 260 272 247 238 240 236 233 230 231 232 231 236 235 224 208 204 210 214 215 213 213 210 199 194 195 192 192 192
325 327 325 327 324 317 316 313 310 305 299 299 297 285 275 289 291 276 238 227 236 240 235 231 233 231 234 234 228 220 197 202 212 216 216 214 210 203 198 194 190 189 188
326 328 323 329 323 318 313 311 306 301 295 288 288 289 285 283 278 268 263 258 249 244 242 234 225 223 229 232 226 220 205 201 208 211 215 214 209 205 204 196 189 187 185
329 326 328 328 323 319 318 312 307 303 296 286 279 279 280 277 278 278 267 262 264 259 242 234 235 222 218 222 218 210 205 208 213 211 210 211 208 205 207 201 190 183 179
327 324 326 325 320 319 316 310 302 297 296 290 281 278 277 274 273 275 276 271 271 268 260 243 232 226 213 213 216 213 211 214 218 217 212 210 207 201 202 202 193 184 175
323 323 322 321 318 319 316 311 303 298 299 296 283 271 273 275 275 270 272 269 260 260 257 247 225 218 217 214 214 208 220 216 216 215 216 211 205 199 194 190 184 179 159
324 323 323 321 318 318 319 318 308 305 305 300 291 275 266 266 267 265 262 262 263 250 245 243 238 205 207 205 207 204 210 198 199 201 204 194 177 161 148 144 139 136 123
324 324 325 323 318 319 323 320 308 306 310 306 297 291 279 267 262 257 251 246 242 248 243 240 255 230 187 169 181 201 182 156 155 151 158 155 148 144 132 133 134 134 134
326 325 326 324 323 324 327 323 310 316 316 314 314 307 296 271 274 271 263 251 239 238 238 234 240 232 201 156 140 134 144 143 134 128 129 134 133 134 136 138 138 140 140
328 327 327 324 324 327 327 323 313 320 323 323 325 324 325 306 259 255 286 277 247 230 229 224 212 204 202 165 164 146 147 138 132 130 125 121 122 129 132 135 140 142 142
330 330 331 326 326 328 323 320 314 324 328 328 329 330 332 342 317 285 291 287 257 239 227 218 203 196 185 162 160 144 139 146 144 134 127 126 125 125 129 133 136 136 137
333 331 332 331 329 328 325 318 323 343 340 336 333 333 335 347 332 293 285 292 267 233 219 217 214 194 176 162 158 140 140 128 137 141 137 136 132 128 128 127 129 131 135
334 331 332 332 331 332 328 328 346 344 340 339 338 340 340 354 1 357 337 301 284 254 236 227 203 178 169 164 163 153 135 115 92 123 132 131 129 129 132 136 140 139 140
333 333 331 332 332 332 331 337 352 348 345 345 344 351 353 359 7 19 32 36 31 357 248 260 179 118 138 144 146 158 144 139 124 55 105 102 131 135 144 154 150 145 140
332 330 331 333 333 333 334 338 349 353 356 4 358 10 12 9 16 12 26 34 36 42 43 41 66 50 27 23 115 159 167 161 133 80 109 75 70 80 91 116 132 137 135
331 329 332 335 335 337 337 339 342 4 6 15 15 30 29 23 27 27 26 31 29 32 40 44 57 56 57 34 22 41 98 100 89 57 51 96 82 64 42 68 103 112 114
327 329 334 336 339 341 343 353 33 29 16 18 22 31 35 31 33 33 31 32 32 22 24 36 44 42 41 46 42 50 96 128 105 58 22 91 112 87 55 36 53 97 104
324 328 332 338 344 348 351 7 28 15 15 10 22 37 39 38 34 36 36 36 34 24 23 26 30 33 32 33 39 40 34 83 98 87 9 68 121 115 88 36 32 44 91
Height
1520 1517 1514 1510 1508 1505 1504 1502 1502 1502 1501 1500 1499 1499 1499 1499 1498 1498 1498 1497 1498 1500 1501 1503 1506 1509 1511 1514 1516 1519 1522 1524 1525 1527 1529 1532 1535 1537 1539 1541 1543 1546 1548
1518 1513 1509 1506 1503 1500 1498 1497 1496 1496 1495 1495 1494 1493 1493 1493 1493 1493 1493 1493 1493 1494 1495 1497 1499 1502 1505 1509 1512 1513 1517 1519 1521 1524 1526 1529 1532 1534 1537 1539 1541 1543 1545
1517 1511 1506 1502 1498 1495 1493 1492 1491 1490 1490 1489 1488 1486 1486 1487 1487 1487 1487 1487 1488 1488 1489 1490 1492 1495 1498 1503 1506 1509 1513 1515 1517 1520 1523 1526 1528 1531 1533 1536 1538 1540 1542
1513 1508 1504 1499 1495 1490 1488 1485 1485 1485 1484 1483 1482 1480 1479 1479 1480 1480 1481 1482 1483 1483 1483 1484 1486 1488 1491 1495 1499 1503 1506 1509 1512 1516 1519 1522 1525 1528 1530 1532 1535 1537 1539
1510 1506 1502 1497 1492 1488 1484 1481 1479 1478 1477 1476 1476 1475 1473 1472 1472 1473 1474 1475 1476 1476 1477 1479 1480 1482 1484 1488 1492 1497 1501 1504 1507 1512 1516 1518 1521 1524 1526 1529 1531 1534 1536
1508 1503 1499 1495 1490 1485 1481 1476 1473 1471 1471 1470 1469 1468 1467 1466 1465 1465 1466 1468 1469 1470 1471 1473 1474 1475 1477 1480 1485 1489 1494 1499 1501 1507 1512 1515 1517 1519 1522 1525 1528 1531 1533
1506 1501 1498 1493 1488 1483 1478 1474 1469 1466 1465 1465 1463 1459 1459 1458 1458 1458 1458 1460 1462 1463 1464 1466 1468 1470 1471 1473 1477 1482 1487 1492 1495 1499 1505 1510 1512 1514 1517 1521 1524 1527 1530
1504 1499 1493 1488 1483 1478 1474 1471 1468 1463 1461 1461 1460 1455 1452 1451 1450 1450 1451 1452 1453 1456 1457 1459 1461 1463 1465 1468 1470 1475 1480 1485 1489 1493 1497 1503 1507 1510 1512 1516 1519 1522 1526
1501 1497 1491 1486 1481 1476 1472 1468 1465 1461 1457 1455 1456 1455 1449 1444 1444 1444 1444 1445 1446 1448 1450 1452 1454 1456 1459 1462 1464 1467 1472 1478 1482 1486 1490 1495 1500 1503 1507 1512 1515 1518 1521
1497 1493 1490 1484 1478 1474 1470 1465 1460 1457 1454 1451 1450 1449 1448 1444 1443 1439 1438 1439 1440 1440 1442 1444 1447 1450 1452 1455 1457 1460 1463 1469 1475 1479 1483 1487 1491 1496 1501 1506 1510 1513 1516
1494 1489 1485 1481 1475 1470 1466 1462 1456 1453 1450 1447 1444 1443 1440 1438 1435 1436 1434 1435 1435 1436 1437 1438 1440 1441 1444 1448 1450 1452 1456 1461 1466 1471 1476 1480 1484 1488 1493 1499 1503 1507 1511
1491 1485 1481 1476 1470 1465 1461 1457 1452 1447 1444 1441 1438 1436 1435 1433 1430 1429 1428 1429 1431 1432 1433 1432 1434 1436 1437 1440 1442 1445 1449 1453 1457 1462 1468 1473 1478 1482 1488 1492 1496 1500 1505
1487 1482 1477 1471 1466 1461 1456 1451 1446 1441 1436 1432 1430 1427 1426 1426 1425 1424 1423 1423 1424 1426 1428 1427 1428 1430 1431 1433 1435 1439 1442 1446 1450 1454 1459 1465 1470 1476 1481 1486 1490 1494 1499
1485 1480 1474 1468 1463 1458 1452 1447 1441 1436 1430 1425 1422 1419 1416 1417 1419 1417 1416 1418 1418 1419 1420 1422 1422 1423 1426 1427 1429 1432 1435 1439 1443 1447 1452 1457 1462 1469 1474 1480 1484 1489 1494
1482 1476 1471 1465 1460 1455 1449 1443 1436 1430 1424 1419 1416 1413 1410 1409 1410 1410 1411 1412 1413 1412 1413 1416 1418 1418 1421 1422 1424 1426 1428 1431 1436 1440 1445 1450 1456 1462 1467 1473 1478 1484 1486
1478 1472 1467 1461 1456 1451 1445 1439 1432 1427 1421 1415 1410 1407 1404 1403 1403 1403 1403 1405 1406 1405 1404 1409 1413 1413 1415 1417 1419 1421 1423 1426 1430 1434 1439 1443 1449 1455 1460 1466 1471 1477 1483
1475 1469 1462 1456 1451 1446 1441 1435 1429 1425 1417 1411 1405 1400 1397 1397 1396 1396 1396 1397 1399 1399 1396 1401 1406 1408 1409 1411 1414 1416 1419 1423 1427 1431 1435 1439 1443 1449 1455 1461 1466 1471 1477
1472 1466 1460 1452 1446 1441 1436 1431 1424 1421 1413 1407 1400 1394 1391 1390 1391 1390 1390 1390 1390 1391 1392 1394 1399 1401 1403 1406 1409 1411 1415 1421 1425 1430 1434 1439 1442 1447 1452 1458 1463 1469 1474
1469 1463 1457 1450 1444 1438 1432 1426 1420 1417 1410 1404 1399 1393 1388 1385 1384 1384 1383 1383 1384 1384 1385 1388 1392 1395 1397 1400 1404 1407 1412 1418 1424 1428 1432 1438 1444 1446 1451 1456 1463 1469 1476
1467 1460 1454 1448 1442 1436 1430 1422 1418 1412 1407 1401 1396 1390 1384 1378 1376 1377 1377 1378 1378 1379 1379 1379 1384 1390 1392 1394 1399 1402 1408 1415 1421 1425 1430 1437 1442 1447 1452 1457 1462 1467 1475
1465 1458 1452 1447 1441 1435 1428 1422 1417 1411 1406 1400 1395 1390 1384 1379 1374 1372 1372 1371 1371 1373 1373 1373 1377 1381 1383 1388 1394 1398 1404 1410 1420 1425 1430 1436 1441 1446 1451 1457 1462 1467 1474
1463 1456 1450 1445 1440 1434 1428 1422 1417 1411 1405 1400 1395 1390 1384 1380 1375 1369 1366 1364 1365 1366 1367 1372 1371 1373 1378 1383 1387 1395 1401 1409 1417 1423 1427 1433 1440 1445 1452 1457 1461 1466 1472
1461 1455 1449 1444 1438 1433 1427 1421 1416 1412 1407 1402 1397 1392 1387 1382 1378 1373 1368 1365 1363 1362 1365 1368 1364 1368 1372 1376 1384 1391 1399 1405 1411 1418 1425 1430 1436 1442 1450 1455 1460 1464 1470
1460 1454 1449 1443 1438 1432 1426 1420 1415 1412 1408 1403 1399 1396 1390 1386 1382 1377 1373 1369 1365 1364 1365 1364 1359 1366 1369 1374 1379 1385 1392 1398 1405 1413 1421 1428 1434 1439 1445 1452 1458 1463 1468
1460 1455 1450 1444 1438 1433 1426 1420 1417 1414 1410 1406 1403 1400 1395 1391 1386 1381 1377 1373 1369 1369 1367 1363 1359 1361 1364 1372 1380 1387 1392 1396 1402 1410 1418 1425 1432 1437 1443 1449 1454 1460 1464
1460 1455 1450 1445 1440 1435 1429 1425 1420 1416 1413 1409 1407 1405 1401 1396 1392 1386 1383 1381 1378 1377 1375 1372 1369 1369 1372 1376 1380 1384 1388 1394 1401 1409 1416 1420 1426 1433 1440 1445 1449 1453 1457